RH
7 7 7 7 7 7 8 8 8 8 8 8 8 8 8 8 7 8 7 6 6 8 10 10 10 10 10 9 9 10 9 10 10 9 9 10 10 12 10 11 11 12 11 11 11 11 10 13 12 16 21 23 25 28
6 7 7 7 7 7 8 8 8 8 7 7 6 6 6 6 6 5 6 5 4 6 7 6 6 6 5 5 6 6 6 7 6 6 6 7 8 7 8 8 9 9 9 10 9 10 11 12 12 12 13 14 14 16
10 10 11 12 12 12 12 12 11 10 9 8 8 7 7 6 6 5 5 5 5 6 8 7 6 5 8 7 6 8 5 5 4 4 4 5 4 4 4 5 5 5 6 6 6 8 9 10 12 13 13 12 13 14
9 9 8 8 8 8 7 7 8 8 8 7 7 6 6 6 5 5 4 4 4 5 6 5 5 5 5 5 5 5 4 5 5 5 6 5 5 5 5 5 5 6 6 6 6 8 7 9 9 8 9 9 10 12
7 7 8 8 8 7 7 7 7 7 7 7 7 6 6 6 5 4 4 4 4 4 4 4 4 4 4 4 4 5 5 4 4 4 4 4 4 5 6 9 12 9 8 7 7 5 6 7 7 7 7 8 9 9
9 9 9 10 10 10 10 10 10 9 9 9 8 6 6 5 4 4 4 4 4 4 4 3 3 3 3 3 4 4 4 5 5 6 6 7 6 6 8 7 6 6 5 6 6 5 6 7 6 6 8 8 8 8
7 8 8 8 8 8 9 9 9 9 8 6 5 5 5 4 4 4 4 4 4 3 3 3 4 3 4 4 4 4 4 4 6 7 7 6 5 7 7 6 4 4 4 5 7 7 7 6 5 6 7 7 10 12
6 7 7 8 8 8 9 9 9 7 6 6 5 5 5 5 4 4 4 4 4 4 4 4 4 4 4 4 4 4 5 5 6 7 6 5 6 7 7 5 5 7 8 8 10 9 8 8 8 9 10 12 11 13
6 6 7 7 8 9 9 8 7 7 7 7 6 6 5 5 4 4 4 4 4 4 5 4 5 5 4 5 5 5 5 5 6 6 7 8 7 7 6 7 6 6 6 6 6 8 9 10 10 8 9 10 12 16
6 7 8 8 9 8 8 8 8 8 8 8 8 7 6 6 5 5 4 4 4 4 4 5 5 6 6 7 8 8 9 9 8 8 8 8 7 8 8 8 7 7 7 7 5 6 9 9 10 11 11 12 14 15
7 7 8 8 8 8 9 9 9 8 7 8 7 6 6 6 6 6 5 5 5 5 5 4 5 6 6 8 10 10 11 10 8 8 9 9 9 8 8 9 10 10 10 8 8 8 8 10 12 13 14 15 17 16
8 7 8 8 9 9 9 9 8 8 8 8 7 6 7 6 6 7 7 7 8 9 8 10 9 10 10 10 11 11 11 11 11 11 10 10 10 10 10 10 11 10 10 9 10 10 11 12 14 15 18 18 22 35
7 8 9 9 9 10 9 8 8 8 8 8 8 8 8 8 9 9 9 8 8 8 8 9 8 10 9 12 12 12 14 17 18 16 15 14 14 13 12 12 13 11 11 10 12 11 12 15 17 24 28 34 39 41
6 6 7 8 8 9 9 9 9 9 9 9 8 8 8 9 9 11 12 12 11 12 10 10 10 12 15 18 18 21 26 25 19 20 20 19 17 14 15 14 15 13 14 14 16 18 21 24 29 40 49 54 55 68
6 6 6 7 8 8 9 9 9 9 9 9 10 14 18 18 15 15 14 14 14 16 18 19 22 24 25 27 29 28 24 29 29 28 29 29 22 18 21 20 20 19 20 26 32 31 31 40 52 51 55 63 73 75
7 7 7 8 9 10 10 10 11 11 12 11 12 14 19 22 20 22 24 22 20 21 24 22 24 25 26 28 33 38 37 37 38 46 42 33 33 30 26 27 28 29 26 22 29 32 31 42 50 56 60 62 69 78
8 8 8 8 9 9 8 10 12 12 12 13 14 15 19 22 25 30 32 26 29 28 26 25 23 30 40 52 52 43 42 50 48 50 45 50 50 44 47 42 36 31 34 37 30 35 47 51 53 63 70 71 74 77
11 8 8 7 8 8 8 10 11 11 11 13 13 15 18 21 31 40 39 33 32 31 30 33 37 51 57 53 50 49 57 54 57 62 66 64 65 67 63 68 66 55 43 46 62 67 69 72 75 79 84 83 74 72
13 15 12 10 9 8 8 9 10 12 13 14 15 18 21 24 32 38 36 30 33 36 44 44 44 46 48 46 48 54 66 67 64 69 78 79 76 74 81 83 79 77 74 70 70 75 81 85 87 80 69 68 74 84
9 9 11 16 18 16 18 18 16 16 16 17 14 16 20 25 27 24 26 31 35 40 43 40 38 40 46 48 55 58 69 72 72 74 79 87 80 79 79 81 83 86 89 86 85 85 86 88 82 72 73 80 86 93
12 12 12 12 11 11 13 21 25 28 27 26 24 23 24 24 28 28 26 28 41 44 42 40 40 43 52 55 59 77 79 80 73 67 64 66 69 71 74 74 76 81 87 93 93 95 98 96 86 78 79 83 84 84
15 14 14 14 14 15 15 14 17 18 24 29 35 37 34 32 32 33 36 38 48 37 36 40 40 43 47 53 63 64 62 62 66 66 64 62 61 65 72 76 81 86 89 90 88 89 90 87 86 87 88 84 83 85
22 20 17 16 15 16 17 17 18 19 20 21 24 29 33 35 39 41 36 41 45 47 47 46 48 46 43 45 48 53 58 61 64 66 66 68 70 75 77 78 80 84 86 90 87 88 92 91 89 90 88 86 86 90
19 23 24 23 19 17 16 16 17 17 18 19 18 18 22 27 31 31 28 33 44 53 54 53 54 56 54 54 54 55 61 65 67 70 74 80 84 86 86 86 85 83 82 81 82 89 90 88 87 86 80 77 78 82
16 17 19 21 22 23 20 18 17 16 15 16 18 17 18 18 20 20 18 20 23 29 42 48 54 59 57 59 66 66 68 75 79 82 80 83 84 86 86 81 78 76 79 83 84 83 81 82 81 81 79 78 77 75
16 16 16 16 17 19 20 20 19 19 18 18 16 15 16 18 18 18 16 14 14 15 17 20 24 28 35 47 42 44 53 59 62 64 66 69 72 75 79 81 74 71 70 75 76 76 75 73 71 70 70 69 67 67
15 14 14 16 16 16 16 17 17 17 16 15 15 16 17 18 18 15 14 14 15 15 15 14 15 16 18 18 21 24 25 31 38 42 43 47 49 54 60 66 67 61 62 64 64 65 64 65 66 67 67 64 60 56
16 13 12 13 13 14 15 14 14 16 15 15 14 12 13 12 13 14 17 18 17 14 12 11 11 12 14 13 14 15 15 16 19 22 24 29 33 34 37 39 43 47 49 50 50 48 48 51 52 52 53 52 50 50
16 13 11 11 12 12 12 12 12 12 13 14 14 12 11 10 11 13 12 11 12 11 12 12 10 10 12 11 11 11 12 12 13 14 14 15 16 17 20 22 25 29 33 37 36 32 34 37 40 42 43 44 48 46
14 14 12 10 10 11 10 10 10 10 10 11 12 12 10 10 10 10 10 10 11 11 10 10 9 9 9 9 9 9 10 10 10 11 12 13 14 13 13 12 13 16 19 20 20 22 27 32 36 36 32 31 29 22
12 12 11 10 9 10 10 10 9 8 9 10 10 11 10 10 8 8 8 8 8 8 8 8 8 9 8 8 8 8 8 8 9 9 10 10 11 11 12 12 12 12 11 9 10 12 16 19 19 19 18 18 15 11
11 10 10 9 8 8 9 9 9 8 7 8 8 8 8 8 8 8 8 7 7 6 6 7 7 7 8 7 7 7 8 7 7 8 8 8 8 8 9 10 11 11 10 11 12 12 12 13 13 14 14 12 9 8
11 9 8 8 8 8 8 8 9 8 6 6 6 7 7 7 7 7 7 7 6 6 6 6 6 6 6 6 6 6 7 6 6 5 5 5 5 5 6 6 7 7 7 8 9 10 11 12 12 12 10 8 7 8
Wind_Speed
35 36 36 37 37 38 38 39 39 40 41 42 44 46 48 50 51 52 56 54 53 52 62 65 68 68 72 73 71 74 75 77 80 80 81 79 77 85 84 83 88 92 94 93 97 100 99 105 104 104 111 117 116 119
30 31 31 32 33 33 34 34 35 36 38 39 40 41 43 44 45 45 49 50 46 45 55 60 59 63 63 61 61 65 66 71 71 71 69 68 72 74 76 73 79 80 83 84 84 81 83 88 88 90 92 96 98 99
25 27 27 28 29 30 30 31 32 33 33 34 35 36 38 39 40 41 42 43 41 40 48 53 55 48 51 54 53 54 58 62 60 61 57 60 64 65 63 63 65 67 69 71 69 70 73 75 77 78 82 81 82 84
23 24 24 25 26 27 27 27 27 28 30 30 31 32 33 35 36 36 36 37 36 35 41 48 44 46 44 48 49 51 52 52 55 55 54 54 54 52 50 49 49 52 54 57 55 61 62 63 70 71 73 72 72 74
18 18 19 20 21 22 23 24 25 25 26 27 28 29 30 30 32 31 30 32 31 33 37 39 40 42 43 41 42 43 46 46 45 45 44 44 43 40 36 37 40 49 49 48 49 57 54 60 62 62 61 61 60 65
13 15 15 16 18 19 20 21 21 21 22 22 24 25 25 26 26 25 25 27 26 30 32 33 33 34 34 34 34 36 38 37 35 33 34 35 36 30 33 40 45 46 44 41 44 47 41 49 53 52 51 51 51 52
11 12 13 14 15 15 16 17 17 17 18 19 19 19 19 19 20 20 21 22 24 27 25 25 26 28 27 28 28 29 30 29 29 29 33 35 30 29 36 41 46 38 32 32 35 38 40 43 40 39 42 41 37 37
9 10 11 12 12 12 12 12 12 13 14 13 12 12 13 13 13 13 15 16 17 16 16 17 20 21 21 21 21 23 24 27 28 29 30 26 23 28 32 35 28 25 27 27 26 34 35 31 32 32 32 34 37 35
7 8 8 9 9 9 8 9 10 10 8 7 7 8 9 10 10 10 11 13 14 15 15 15 15 16 14 15 15 15 17 19 21 22 20 18 18 24 26 26 27 26 28 30 30 29 28 28 31 31 29 31 27 28
5 5 5 5 6 6 6 6 6 5 5 4 5 5 6 7 7 8 9 10 12 14 15 15 15 15 13 12 10 9 10 12 13 16 17 17 17 17 17 19 19 19 21 25 26 25 25 26 24 26 26 24 24 26
5 4 4 3 3 2 2 2 3 3 2 3 3 4 4 5 5 6 6 7 9 9 11 13 15 16 16 12 10 10 10 10 13 11 10 10 11 13 13 12 12 13 16 15 16 20 21 22 22 20 20 18 20 20
7 5 3 2 2 2 2 0 0 2 2 2 2 1 1 2 0 1 2 2 2 3 5 8 10 11 13 14 11 10 8 8 9 7 6 6 6 6 7 9 10 12 14 14 13 15 17 17 18 16 15 17 13 13
7 5 4 3 3 3 3 3 4 4 4 6 6 6 4 7 7 7 5 3 2 5 8 10 10 12 12 12 9 8 8 5 4 4 5 5 5 5 5 7 8 11 13 12 10 14 14 14 15 16 16 14 16 17
9 7 4 3 5 4 5 6 7 7 8 9 11 11 11 10 9 10 9 8 8 9 9 6 6 9 9 9 7 6 5 5 3 3 3 5 5 4 6 7 9 8 9 9 12 14 14 15 16 16 15 16 15 14
13 8 4 3 5 6 6 7 7 7 8 9 14 16 16 12 10 12 8 9 10 8 7 8 10 8 8 8 9 9 7 7 6 6 5 6 6 6 7 6 7 8 9 13 15 16 17 17 17 18 19 19 17 19
15 11 10 7 8 10 11 12 11 11 10 10 13 15 16 15 14 14 10 8 7 7 8 8 10 11 10 10 10 11 10 10 10 9 8 6 5 6 6 7 6 8 9 13 16 15 15 16 17 17 18 18 16 15
18 14 12 10 9 8 11 14 13 14 12 11 12 15 17 16 16 14 10 8 7 7 7 8 11 14 11 12 11 10 12 12 11 10 9 6 7 8 6 4 5 6 9 9 11 14 15 14 14 15 15 15 13 13
24 18 13 14 10 9 13 15 14 13 13 12 13 15 16 16 15 12 11 11 10 10 10 10 11 12 13 13 12 11 12 13 11 11 8 7 6 7 8 7 5 6 8 11 11 11 11 12 12 13 14 15 14 14
25 23 18 15 15 15 15 14 15 13 11 11 11 11 10 10 10 9 9 10 10 9 10 11 11 12 11 11 12 13 12 12 12 9 7 6 6 6 7 7 8 9 11 12 14 16 17 17 18 19 18 16 16 17
28 25 22 22 17 17 19 18 15 13 11 10 7 7 6 4 2 2 5 6 6 8 10 11 11 11 12 13 13 14 14 13 12 12 12 12 12 12 11 11 12 14 16 17 17 19 19 19 21 21 21 21 23 24
34 30 27 24 21 19 18 17 15 13 12 10 9 6 3 1 1 2 3 4 8 11 13 13 13 14 15 15 16 16 16 16 16 17 16 16 16 16 16 16 17 18 19 22 24 25 26 28 27 26 28 29 30 30
40 36 33 29 26 23 20 18 16 13 11 9 7 5 5 5 5 5 4 4 9 13 12 15 16 17 18 19 20 19 20 20 21 21 21 21 20 20 20 20 21 22 24 27 28 29 31 33 34 34 36 37 36 36
41 39 36 32 29 26 23 20 17 15 14 12 12 11 10 10 10 12 10 9 12 13 15 17 20 22 22 22 22 23 24 25 25 25 26 26 26 26 26 25 25 27 28 29 31 32 33 36 39 42 43 42 41 42
37 35 35 36 34 31 28 24 20 18 16 16 16 15 15 15 18 19 17 15 15 19 21 22 23 26 28 28 29 29 29 30 29 30 30 30 30 30 31 31 31 32 34 35 33 33 35 36 37 39 42 44 45 46
40 37 35 32 29 29 29 29 27 26 24 21 21 20 20 19 20 24 24 23 22 23 25 26 27 29 30 31 31 32 31 33 33 33 33 33 33 33 33 33 33 33 33 35 35 36 36 37 39 41 43 45 46 49
44 40 38 35 32 30 28 26 25 25 26 27 27 26 25 24 26 26 29 27 25 24 26 28 31 33 34 36 36 34 35 36 38 38 38 38 37 37 37 38 37 37 37 37 38 39 39 40 41 42 45 47 48 50
47 42 37 36 35 34 32 30 28 28 27 26 25 24 25 28 31 32 31 29 30 31 30 30 31 32 34 35 37 39 39 38 39 41 40 41 40 40 40 41 42 42 41 42 42 43 43 44 45 46 48 49 49 50
47 45 41 37 34 32 33 32 30 30 30 29 30 29 27 27 27 27 29 31 34 36 35 33 31 31 35 37 37 38 38 39 41 44 44 44 45 44 43 43 43 44 44 45 45 44 44 45 46 47 48 49 50 54
47 47 45 41 38 36 34 35 33 30 29 29 31 33 32 28 25 28 32 32 34 35 36 37 36 33 36 38 38 38 39 39 39 41 43 44 45 47 47 47 46 46 46 48 49 47 46 47 48 50 52 53 56 58
47 47 48 46 41 39 38 36 36 34 31 29 30 33 32 30 30 31 31 32 34 35 36 36 35 35 36 37 39 39 40 41 41 41 42 43 44 44 46 48 49 49 50 51 50 49 50 51 53 54 55 56 58 58
48 46 46 45 44 42 41 40 39 36 32 31 28 31 33 36 34 33 32 33 32 32 33 34 35 35 36 37 37 39 40 40 41 41 42 43 44 46 46 47 48 49 50 49 48 48 50 52 54 54 55 57 58 57
51 48 46 47 46 43 41 42 43 41 35 32 30 27 29 32 33 35 35 36 36 34 33 33 32 32 34 37 37 37 39 39 39 40 40 42 43 44 44 46 47 50 49 47 48 49 50 51 52 52 54 56 55 52
57 54 49 47 46 44 43 43 43 46 41 35 30 28 29 32 32 32 34 35 36 36 35 34 33 33 33 34 35 35 36 38 38 38 39 40 40 40 42 43 45 46 46 46 47 48 49 49 50 51 53 51 48 46
Wind_Direction
256 256 256 255 255 255 255 255 255 256 255 255 254 255 255 255 255 255 257 255 252 250 254 253 252 253 254 255 253 254 257 257 256 257 258 258 257 256 255 255 255 256 258 257 257 258 260 259 260 260 260 260 258 258
253 253 253 253 253 253 253 253 253 253 253 253 254 256 256 256 255 254 255 256 254 248 251 253 253 251 252 258 256 252 253 255 255 255 255 255 257 256 255 253 255 255 257 257 258 260 259 259 259 259 258 259 261 261
248 249 250 250 251 252 252 252 253 254 257 258 258 258 259 259 258 258 257 257 255 250 250 253 252 256 253 253 254 252 251 252 257 257 257 252 252 255 256 256 255 257 258 259 260 259 258 258 259 258 258 258 258 258
249 249 249 250 251 253 254 257 259 259 259 260 261 261 261 261 261 260 259 258 256 251 249 252 253 252 251 249 249 249 251 251 253 254 255 256 257 257 260 261 262 262 260 256 256 255 254 253 253 254 256 258 259 259
255 255 254 254 255 257 258 257 257 258 259 259 260 260 261 262 262 262 259 259 255 250 247 248 248 247 247 248 248 248 250 252 254 256 259 261 264 262 261 259 249 246 248 248 247 248 246 249 250 252 256 256 257 260
249 249 251 253 254 255 256 259 261 262 261 263 263 266 266 265 266 265 261 258 255 250 246 247 249 250 249 248 246 246 248 251 253 255 255 253 250 251 249 249 249 247 248 247 248 253 250 250 252 254 255 258 257 261
262 257 256 256 257 259 260 261 261 263 262 262 264 266 266 264 263 262 256 253 249 249 250 250 247 246 244 243 242 243 243 243 243 243 242 243 242 239 240 242 248 255 265 265 258 254 249 251 254 254 253 259 265 261
272 268 266 264 264 262 262 261 262 263 265 268 269 272 272 270 264 260 256 253 251 253 249 240 241 244 243 243 242 239 236 236 238 240 245 249 241 242 246 252 263 254 241 233 235 245 247 249 248 249 247 245 247 250
278 269 268 266 262 257 254 257 263 270 279 280 279 272 264 260 255 248 243 241 236 232 228 228 227 226 224 226 234 243 246 244 248 248 245 244 244 245 247 247 252 253 247 239 231 235 238 237 239 242 242 243 249 252
292 276 267 259 255 249 254 271 281 284 279 277 274 265 259 254 246 240 233 231 238 229 218 210 210 206 206 207 210 218 228 230 236 237 238 235 229 234 241 250 258 257 249 249 254 237 227 231 233 233 236 234 236 242
322 307 296 281 259 273 306 311 306 294 315 294 276 269 256 256 251 246 239 228 235 231 227 217 210 206 201 191 189 195 208 225 235 234 234 238 223 218 225 234 243 244 246 252 252 242 229 223 226 226 231 234 238 241
20 23 37 59 92 74 53 100 138 52 31 19 342 307 250 227 258 26 243 216 222 226 212 205 195 185 189 185 191 190 194 194 199 210 204 208 226 237 242 240 240 240 238 233 232 236 224 217 213 216 218 221 211 213
38 56 69 69 73 102 123 104 86 94 108 101 89 69 91 84 89 103 89 116 149 184 187 175 190 190 179 168 167 159 148 143 185 208 219 229 238 242 241 224 224 222 220 215 213 218 203 201 197 193 198 203 211 215
19 21 24 88 100 114 121 110 121 127 129 126 116 105 101 95 103 104 109 119 140 152 168 174 172 164 156 149 140 125 149 182 201 200 242 231 235 241 231 229 210 227 215 210 195 189 182 181 183 192 200 206 209 217
27 20 9 60 89 93 91 120 120 118 112 116 113 99 95 99 112 112 117 126 127 135 135 145 147 143 139 147 152 155 153 147 163 172 193 205 210 212 184 203 219 209 191 182 185 187 184 185 187 194 200 206 212 220
41 46 42 49 85 99 102 95 90 88 87 101 112 113 108 109 109 103 99 111 108 131 140 149 151 151 153 150 146 147 149 154 151 154 152 157 167 186 185 193 205 214 218 198 193 204 207 205 205 208 219 219 218 216
39 36 44 69 90 106 105 89 86 93 96 100 112 109 113 118 114 113 125 124 120 145 159 166 148 139 151 151 159 162 158 158 158 155 151 152 166 164 153 179 218 219 210 221 225 217 217 219 221 210 210 214 212 220
50 50 48 52 78 78 94 92 93 92 94 102 111 114 126 125 127 139 156 159 161 163 168 161 159 163 175 176 180 175 174 173 167 163 164 161 158 172 168 173 197 208 209 201 198 200 197 200 205 203 208 216 221 231
51 53 56 59 65 69 77 78 83 85 89 99 104 111 116 125 142 168 176 181 184 182 186 190 194 199 199 195 189 186 186 189 187 185 186 202 215 215 216 222 219 216 216 213 208 203 206 208 214 220 223 227 235 245
46 49 54 55 56 60 60 60 61 59 63 69 77 87 95 109 120 207 220 226 230 220 213 214 216 214 213 212 209 206 208 210 207 210 218 230 236 243 246 244 239 237 234 231 230 230 232 232 236 237 240 245 251 255
36 38 41 40 40 42 47 50 53 54 49 44 45 59 68 94 293 283 269 252 237 233 234 238 236 231 225 225 226 225 224 225 230 234 241 246 251 257 260 258 255 251 248 248 246 245 247 248 250 249 249 254 258 262
30 29 29 28 29 29 31 29 25 23 21 21 15 356 331 313 298 283 272 266 254 256 254 253 252 248 243 239 240 241 241 242 245 249 255 262 267 269 268 264 259 258 259 259 256 256 258 259 258 257 258 261 267 271
18 20 22 22 21 19 18 15 10 5 356 344 333 324 314 306 299 290 285 265 255 263 264 260 261 263 261 261 258 254 254 256 258 261 265 269 272 273 273 273 269 266 262 264 265 264 261 261 261 262 264 267 271 273
13 11 10 8 9 8 7 3 358 351 345 333 325 320 310 300 293 288 287 280 274 264 262 262 260 262 266 268 267 266 265 266 268 269 273 274 274 274 273 272 273 273 271 269 267 266 266 266 265 266 266 267 269 271
6 3 1 0 360 357 355 352 347 343 339 333 322 317 309 304 296 292 290 285 277 268 265 268 269 270 269 269 270 270 269 269 272 273 273 273 276 276 274 271 268 267 267 267 266 265 264 265 266 267 269 271 273 275
360 357 353 350 349 346 346 343 341 336 331 326 322 320 314 308 298 293 292 296 291 288 283 277 272 268 266 267 269 267 265 265 267 269 269 269 269 269 270 271 270 268 268 268 268 269 271 272 273 273 273 275 277 279
354 353 352 345 340 338 337 336 335 332 329 325 319 313 309 303 299 299 302 300 296 290 282 276 272 272 273 271 268 269 270 268 268 268 267 268 268 268 268 268 269 269 269 268 269 269 270 271 273 275 278 280 283 285
349 347 347 345 341 335 330 329 330 327 323 323 317 314 309 306 304 302 298 290 285 286 288 286 281 274 271 269 268 267 265 264 264 265 266 266 267 267 266 265 266 267 269 269 270 272 273 274 276 279 281 283 284 285
347 343 341 343 340 335 330 326 327 325 323 319 314 312 310 309 306 296 289 290 289 289 289 289 288 284 279 276 274 270 268 267 265 264 264 264 264 265 266 267 267 266 267 268 270 272 273 275 277 279 280 282 285 287
344 341 337 337 338 334 330 328 325 325 326 321 318 311 309 308 303 298 298 297 293 291 289 288 287 285 281 279 278 277 276 274 272 271 269 267 268 268 267 267 268 268 269 270 271 272 273 275 277 279 281 284 285 287
340 340 336 334 334 334 330 326 325 324 324 320 318 312 311 307 307 306 306 300 298 294 290 288 287 285 283 282 281 279 277 276 276 274 273 273 272 271 270 270 271 271 271 272 273 274 274 275 277 279 281 283 285 288
335 336 336 334 332 333 331 326 323 323 324 322 319 315 308 305 305 305 305 305 303 300 297 294 290 286 284 284 283 282 281 280 277 275 273 272 272 273 273 272 272 273 276 277 276 275 276 277 279 281 283 284 287 293
331 332 334 334 332 331 329 325 323 321 322 321 321 318 312 308 307 307 305 303 302 301 300 298 296 293 290 285 284 283 281 280 279 277 276 274 273 273 272 272 272 274 275 275 275 275 276 278 279 280 281 285 289 292